TimeEDT,TemperatureF,Dew PointF,Humidity,Sea Level PressureIn,VisibilityMPH,Wind Direction,Wind SpeedMPH,Gust SpeedMPH,PrecipitationIn,Events,Conditions,WindDirDegrees,DateUTC
12:15 AM,44.6,39.2,81,30.26,10.0,WSW,4.6,-,N/A,,Clear,240,2013-09-28 04:15:00
12:35 AM,44.6,39.2,81,30.26,10.0,Calm,Calm,-,N/A,,Clear,0,2013-09-28 04:35:00
12:55 AM,44.6,39.2,81,30.26,10.0,Calm,Calm,-,N/A,,Clear,0,2013-09-28 04:55:00
1:15 AM,44.6,39.2,81,30.26,10.0,Calm,Calm,-,N/A,,Clear,0,2013-09-28 05:15:00
1:55 AM,44.6,39.2,81,30.27,10.0,Calm,Calm,-,N/A,,Clear,0,2013-09-28 05:55:00
2:15 AM,46.4,44.6,93,30.27,9.0,Calm,Calm,-,N/A,,Clear,0,2013-09-28 06:15:00
2:35 AM,44.6,41.0,87,30.27,10.0,Calm,Calm,-,N/A,,Partly Cloudy,0,2013-09-28 06:35:00
2:55 AM,44.6,41.0,87,30.26,10.0,Calm,Calm,-,N/A,,Partly Cloudy,0,2013-09-28 06:55:00
3:15 AM,44.6,39.2,81,30.26,10.0,West,3.5,-,N/A,,Clear,260,2013-09-28 07:15:00
3:35 AM,44.6,42.8,93,30.26,-9999.0,Calm,Calm,-,N/A,,Unknown,0,2013-09-28 07:35:00
4:15 AM,44.6,37.4,76,30.27,-9999.0,West,3.5,-,N/A,,Clear,280,2013-09-28 08:15:00
6:55 AM,44.6,39.2,81,30.30,-9999.0,Calm,Calm,-,N/A,,Unknown,0,2013-09-28 10:55:00
7:15 AM,44.6,42.8,93,30.31,-9999.0,WSW,3.5,-,N/A,,Unknown,240,2013-09-28 11:15:00
7:35 AM,50.0,46.4,87,30.31,-9999.0,West,3.5,-,N/A,,Unknown,260,2013-09-28 11:35:00
7:55 AM,51.8,48.2,88,30.32,-9999.0,Calm,Calm,-,N/A,,Unknown,0,2013-09-28 11:55:00
8:15 AM,53.6,50.0,88,30.32,-9999.0,Calm,Calm,-,N/A,,Unknown,0,2013-09-28 12:15:00
8:35 AM,57.2,51.8,82,30.33,-9999.0,NNE,5.8,-,N/A,,Clear,20,2013-09-28 12:35:00
8:55 AM,59.0,51.8,77,30.33,-9999.0,North,5.8,-,N/A,,Clear,10,2013-09-28 12:55:00
9:15 AM,60.8,51.8,72,30.34,-9999.0,North,8.1,-,N/A,,Clear,10,2013-09-28 13:15:00
9:35 AM,62.6,48.2,59,30.34,-9999.0,North,9.2,-,N/A,,Clear,360,2013-09-28 13:35:00
9:55 AM,64.4,50.0,59,30.34,-9999.0,North,8.1,-,N/A,,Clear,360,2013-09-28 13:55:00
10:15 AM,64.4,50.0,59,30.34,-9999.0,NE,6.9,-,N/A,,Clear,40,2013-09-28 14:15:00
10:35 AM,64.4,50.0,59,30.34,-9999.0,NNE,6.9,-,N/A,,Clear,30,2013-09-28 14:35:00
10:55 AM,66.2,48.2,52,30.34,-9999.0,NE,5.8,-,N/A,,Clear,50,2013-09-28 14:55:00
11:15 AM,66.2,48.2,52,30.34,-9999.0,NNE,4.6,-,N/A,,Clear,30,2013-09-28 15:15:00
11:35 AM,66.2,48.2,52,30.34,-9999.0,ENE,6.9,-,N/A,,Clear,70,2013-09-28 15:35:00
11:55 AM,68.0,48.2,49,30.33,-9999.0,NNE,5.8,-,N/A,,Clear,30,2013-09-28 15:55:00
12:15 PM,69.8,48.2,46,30.33,-9999.0,East,4.6,-,N/A,,Clear,90,2013-09-28 16:15:00
12:35 PM,69.8,50.0,49,30.32,-9999.0,NE,6.9,-,N/A,,Clear,50,2013-09-28 16:35:00
12:55 PM,69.8,48.2,46,30.32,-9999.0,East,6.9,-,N/A,,Scattered Clouds,80,2013-09-28 16:55:00
1:15 PM,71.6,48.2,43,30.31,-9999.0,North,5.8,-,N/A,,Scattered Clouds,360,2013-09-28 17:15:00
1:35 PM,69.8,48.2,46,30.31,-9999.0,North,6.9,-,N/A,,Scattered Clouds,360,2013-09-28 17:35:00
1:55 PM,69.8,46.4,43,30.30,-9999.0,NNE,4.6,-,N/A,,Partly Cloudy,30,2013-09-28 17:55:00
2:15 PM,71.6,46.4,41,30.30,-9999.0,ENE,6.9,-,N/A,,Partly Cloudy,70,2013-09-28 18:15:00
2:35 PM,69.8,48.2,46,30.30,-9999.0,NNW,5.8,-,N/A,,Scattered Clouds,340,2013-09-28 18:35:00
2:55 PM,71.6,48.2,43,30.30,-9999.0,East,8.1,-,N/A,,Mostly Cloudy,100,2013-09-28 18:55:00
3:15 PM,69.8,48.2,46,30.30,-9999.0,SSE,6.9,-,N/A,,Scattered Clouds,150,2013-09-28 19:15:00
3:35 PM,68.0,46.4,46,30.30,-9999.0,East,9.2,-,N/A,,Partly Cloudy,100,2013-09-28 19:35:00
3:55 PM,68.0,48.2,49,30.29,-9999.0,SE,4.6,-,N/A,,Partly Cloudy,140,2013-09-28 19:55:00
4:15 PM,66.2,48.2,52,30.30,-9999.0,ESE,5.8,-,N/A,,Clear,120,2013-09-28 20:15:00
4:35 PM,66.2,48.2,52,30.30,-9999.0,SSE,5.8,-,N/A,,Clear,150,2013-09-28 20:35:00
4:55 PM,64.4,48.2,56,30.29,-9999.0,ESE,3.5,-,N/A,,Clear,120,2013-09-28 20:55:00
5:15 PM,64.4,48.2,56,30.29,-9999.0,ESE,4.6,-,N/A,,Clear,110,2013-09-28 21:15:00
5:35 PM,62.6,48.2,59,30.29,-9999.0,ESE,3.5,-,N/A,,Clear,110,2013-09-28 21:35:00
5:55 PM,62.6,48.2,59,30.29,-9999.0,Calm,Calm,-,N/A,,Clear,0,2013-09-28 21:55:00
6:15 PM,60.8,48.2,63,30.30,-9999.0,Calm,Calm,-,N/A,,Clear,0,2013-09-28 22:15:00
6:35 PM,57.2,48.2,72,30.30,-9999.0,Calm,Calm,-,N/A,,Clear,0,2013-09-28 22:35:00
6:55 PM,53.6,48.2,82,30.30,-9999.0,Calm,Calm,-,N/A,,Clear,0,2013-09-28 22:55:00
7:15 PM,51.8,48.2,88,30.30,-9999.0,Calm,Calm,-,N/A,,Unknown,0,2013-09-28 23:15:00
7:35 PM,50.0,44.6,82,30.30,-9999.0,Calm,Calm,-,N/A,,Clear,0,2013-09-28 23:35:00
7:55 PM,48.2,44.6,87,30.30,-9999.0,Calm,Calm,-,N/A,,Unknown,0,2013-09-28 23:55:00
8:15 PM,48.2,44.6,87,30.29,-9999.0,Calm,Calm,-,N/A,,Unknown,0,2013-09-29 00:15:00
8:35 PM,46.4,42.8,87,30.30,-9999.0,SW,3.5,-,N/A,,Unknown,230,2013-09-29 00:35:00
8:55 PM,46.4,42.8,87,30.30,-9999.0,Calm,Calm,-,N/A,,Unknown,0,2013-09-29 00:55:00
9:15 PM,46.4,42.8,87,30.29,-9999.0,Calm,Calm,-,N/A,,Unknown,0,2013-09-29 01:15:00
9:35 PM,44.6,41.0,87,30.30,-9999.0,Calm,Calm,-,N/A,,Unknown,0,2013-09-29 01:35:00
9:55 PM,44.6,39.2,81,30.29,-9999.0,Calm,Calm,-,N/A,,Clear,0,2013-09-29 01:55:00
10:15 PM,42.8,39.2,87,30.29,-9999.0,WSW,4.6,-,N/A,,Unknown,250,2013-09-29 02:15:00
10:35 PM,42.8,39.2,87,30.29,-9999.0,Calm,Calm,-,N/A,,Unknown,0,2013-09-29 02:35:00
10:55 PM,42.8,39.2,87,30.29,-9999.0,Calm,Calm,-,N/A,,Unknown,0,2013-09-29 02:55:00
11:15 PM,42.8,39.2,87,30.28,-9999.0,WSW,3.5,-,N/A,,Unknown,240,2013-09-29 03:15:00
11:35 PM,42.8,37.4,81,30.27,-9999.0,WSW,3.5,-,N/A,,Clear,240,2013-09-29 03:35:00
11:55 PM,41.0,37.4,87,30.27,-9999.0,Calm,Calm,-,N/A,,Unknown,0,2013-09-29 03:55:00